1491739200.0,32929,13.56,74178.5,12.21,-24.57,-25.29,0,*46
1491739201.24,32930,13.56,74178.8,12.19,-25.03,-25.61,0,*49
1491739202.49,32931,13.56,74180.3,12.17,-24.93,-25.55,0,*49
1491739203.7,32932,13.56,74176.5,12.15,-24.31,-24.61,0,*46
1491739204.91,32933,13.56,74176.5,12.15,-24.05,-24.51,0,*43
1491739206.14,32934,13.56,74176.8,12.15,-25.61,-26.13,0,*43
1491739207.39,32935,13.56,74176.5,12.15,-24.41,-25.09,0,*49
1491739208.62,32936,13.56,74182.3,12.13,-24.97,-25.65,0,*4D
1491739209.88,32937,13.56,74176.5,12.13,-24.47,-24.87,0,*4C
1491739211.13,32938,13.56,74178.0,12.11,-23.65,-23.99,0,*4E
1491739212.36,32939,13.56,74178.3,12.11,-23.75,-24.15,0,*4D
1491739213.61,32940,13.56,74176.3,12.13,-23.39,-23.85,0,*47
1491739214.9,32941,13.56,74180.0,12.13,-24.21,-24.71,0,*44
1491739216.14,32942,13.56,74180.5,12.11,-25.03,-25.61,0,*44
1491739217.37,32943,13.56,74182.8,12.11,-24.05,-24.87,0,*4B
1491739218.63,32944,13.56,74178.8,12.09,-23.79,-24.25,0,*41
1491739219.88,32945,13.56,74180.0,12.09,-22.97,-23.29,0,*4A
1491739221.16,32946,13.56,74180.5,12.09,-22.77,-23.23,0,*4D
1491739222.37,32947,13.56,74176.0,12.11,-24.51,-24.97,0,*4F
1491739223.66,32948,13.56,74176.8,12.09,-22.77,-23.23,0,*43
1491739224.89,32949,13.56,74176.8,12.11,-22.87,-23.23,0,*44
1491739226.11,32950,13.56,74178.8,12.13,-22.07,-22.41,0,*43
1491739227.34,32951,13.56,74178.3,12.13,-22.53,-22.93,0,*4C
1491739228.63,32952,13.56,74178.0,12.13,-22.77,-23.23,0,*43
1491739229.86,32953,13.56,74176.5,12.15,-23.79,-24.11,0,*4D
1491739231.06,32954,13.56,74176.5,12.15,-23.13,-23.59,0,*4D
1491739232.34,32955,13.56,74178.3,12.13,-23.49,-23.85,0,*44
1491739233.61,32956,13.56,74178.5,12.13,-23.75,-24.21,0,*41
1491739234.84,32957,13.56,74176.8,12.13,-22.53,-22.93,0,*4A
1491739236.1,32958,13.56,74178.0,12.13,-23.09,-23.49,0,*4D
1491739237.33,32959,13.56,74176.3,12.15,-23.95,-24.47,0,*46
1491739238.58,32960,13.56,74178.0,12.13,-23.65,-23.89,0,*40
1491739239.85,32961,13.56,74180.3,12.13,-23.69,-23.99,0,*4C
1491739241.13,32962,13.56,74176.8,12.13,-23.19,-23.69,0,*47
1491739242.36,32963,13.56,74182.3,12.15,-23.99,-24.47,0,*43
1491739243.61,32964,13.56,74180.8,12.13,-24.87,-25.35,0,*4E
1491739244.82,32965,13.56,74182.0,12.11,-23.09,-23.39,0,*46
1491739246.05,32966,13.56,74176.8,12.11,-22.73,-23.09,0,*4A
1491739247.33,32967,13.56,74180.5,12.13,-23.03,-23.65,0,*45
1491739248.58,32968,13.56,74176.8,12.13,-23.03,-23.39,0,*43
1491739249.85,32969,13.56,74178.0,12.13,-23.23,-23.69,0,*45
1491739251.11,32970,13.56,74180.0,12.13,-22.87,-23.23,0,*4C
1491739252.36,32971,13.56,74182.0,12.13,-21.97,-22.37,0,*4B
1491739253.61,32972,13.56,74176.0,12.13,-21.97,-22.37,0,*48
1491739254.84,32973,13.56,74176.0,12.15,-22.31,-22.67,0,*45
1491739256.04,32974,13.56,74176.0,12.15,-22.67,-23.13,0,*43
1491739257.3,32975,13.56,74178.0,12.17,-22.47,-22.93,0,*4B
1491739258.51,32976,13.56,74182.3,12.15,-22.67,-23.13,0,*41
1491739259.72,32977,13.56,74178.5,12.15,-22.67,-22.97,0,*4D
1491739260.95,32978,13.56,74184.8,12.17,-22.27,-22.63,0,*4F
1491739262.21,32979,13.56,74176.5,12.17,-21.87,-22.27,0,*47
1491739263.46,32980,13.56,74176.0,12.17,-21.97,-22.27,0,*40
1491739264.72,32981,13.56,74176.8,12.17,-20.93,-21.23,0,*43
1491739265.98,32982,13.56,74178.8,12.19,-21.33,-21.67,0,*45
1491739267.23,32983,13.56,74176.3,12.21,-22.21,-22.57,0,*4F
1491739268.43,32984,13.56,74178.0,12.23,-21.39,-21.73,0,*45
1491739269.62,32985,13.56,74180.3,12.23,-22.07,-22.37,0,*49
1491739270.85,32986,13.56,74176.5,12.23,-22.37,-22.73,0,*49
1491739272.11,32987,13.56,74180.3,12.27,-21.57,-21.83,0,*45
1491739273.35,32988,13.56,74176.0,12.27,-20.63,-21.03,0,*44
1491739274.58,32989,13.56,74176.5,12.29,-19.95,-20.09,0,*43
1491739275.81,32990,13.56,74178.5,12.31,-19.61,-20.09,0,*49
1491739277.05,32991,13.56,74178.8,12.35,-21.57,-21.93,0,*40
1491739278.31,32992,13.56,74182.8,12.33,-21.77,-21.97,0,*43
1491739279.53,32993,13.56,74180.0,12.37,-20.29,-20.63,0,*46
1491739280.79,32994,13.56,74176.5,12.37,-20.43,-20.79,0,*46
1491739282.05,32995,13.56,74176.5,12.39,-21.27,-21.67,0,*44
1491739283.26,32996,13.56,74178.8,12.39,-22.27,-22.63,0,*43
1491739284.49,32997,13.56,74182.0,12.39,-22.17,-22.53,0,*42
1491739285.7,32998,13.56,74178.3,12.39,-22.63,-22.97,0,*46
1491739286.96,32999,13.56,74176.8,12.37,-22.31,-22.63,0,*45
1491739288.24,33000,13.56,74178.8,12.37,-21.87,-22.31,0,*44
1491739289.47,33001,13.56,74178.3,12.39,-21.17,-21.57,0,*41
1491739290.7,33002,13.56,74178.8,12.39,-21.67,-22.37,0,*40
1491739291.96,33003,13.56,74178.8,12.39,-22.47,-22.77,0,*44
1491739293.19,33004,13.56,74176.5,12.39,-22.83,-23.33,0,*4A
1491739294.47,33005,13.56,74182.8,12.41,-22.73,-23.19,0,*43
1491739295.71,33006,13.56,74180.0,12.37,-22.53,-22.83,0,*41
1491739296.92,33007,13.56,74176.5,12.39,-22.53,-22.93,0,*4F
1491739298.15,33008,13.56,74178.8,12.37,-22.67,-23.09,0,*4B
1491739299.43,33009,13.56,74178.0,12.37,-23.29,-23.65,0,*4B
1491739300.68,33010,13.56,74176.8,12.37,-23.29,-23.75,0,*42
1491739301.92,33011,13.56,74176.8,12.39,-22.83,-23.23,0,*4F
1491739303.18,33012,13.56,74182.3,12.37,-20.89,-21.27,0,*4C
1491739304.38,33013,13.56,74176.5,12.39,-21.43,-21.73,0,*45
1491739305.59,33014,13.56,74180.0,12.39,-22.67,-23.09,0,*48
1491739306.84,33015,13.56,74180.8,12.37,-21.03,-21.43,0,*4A
1491739308.1,33016,13.56,74176.3,12.41,-22.57,-23.03,0,*4C
1491739309.33,33017,13.56,74178.5,12.39,-23.33,-23.79,0,*4C
1491739310.59,33018,13.56,74178.5,12.37,-22.83,-23.49,0,*44
1491739311.84,33019,13.56,74178.3,12.37,-21.83,-22.11,0,*4A
1491739313.07,33020,13.56,74176.8,12.39,-21.83,-22.11,0,*4E
1491739314.35,33021,13.56,74178.5,12.41,-21.03,-21.33,0,*4B
1491739315.61,33022,13.56,74176.5,12.41,-20.73,-21.03,0,*4D
1491739316.87,33023,13.56,74180.8,12.41,-20.83,-21.17,0,*46
1491739318.13,33024,13.56,74178.5,12.45,-21.57,-22.03,0,*4B
1491739319.39,33025,13.56,74178.5,12.45,-21.93,-22.21,0,*42
1491739320.67,33026,13.56,74176.5,12.49,-21.83,-22.31,0,*4D
1491739321.93,33027,13.56,74178.8,12.49,-22.17,-22.37,0,*44
1491739323.19,33028,13.56,74178.3,12.45,-21.33,-21.63,0,*40
1491739324.47,33029,13.56,74178.8,12.45,-21.33,-21.83,0,*4F
1491739325.73,33030,13.56,74178.8,12.49,-22.31,-22.63,0,*47
1491739327.0,33031,13.56,74180.3,12.45,-22.97,-23.23,0,*43
1491739328.24,33032,13.56,74178.5,12.45,-22.57,-23.13,0,*4F
1491739329.49,33033,13.56,74178.3,12.49,-22.83,-23.29,0,*42
1491739330.72,33034,13.56,74174.8,12.45,-22.37,-22.57,0,*4E
1491739331.95,33035,13.56,74176.3,12.43,-23.33,-23.79,0,*41
1491739333.15,33036,13.56,74178.3,12.43,-22.27,-22.67,0,*48
1491739334.44,33037,13.56,74176.8,12.45,-23.03,-23.49,0,*45
1491739335.69,33038,13.56,74178.0,12.45,-22.21,-22.41,0,*42
1491739336.89,33039,13.56,74176.5,12.43,-21.43,-21.63,0,*41
1491739338.14,33040,13.56,74176.5,12.45,-21.17,-21.57,0,*4F
1491739339.37,33041,13.56,74176.5,12.45,-21.63,-22.07,0,*4B
1491739340.66,33042,13.56,74176.3,12.45,-22.73,-23.23,0,*4D
1491739341.92,33043,13.56,74178.5,12.45,-21.73,-22.17,0,*49
1491739343.18,33044,13.56,74178.5,12.45,-21.87,-22.27,0,*46
1491739344.47,33045,13.56,74178.3,12.49,-22.47,-22.77,0,*41
1491739345.7,33046,13.56,74180.8,12.49,-21.39,-21.73,0,*4F
1491739346.96,33047,13.56,74178.5,12.49,-20.73,-21.23,0,*44
1491739348.19,33048,13.56,74180.5,12.51,-21.39,-21.83,0,*47
1491739349.43,33049,13.56,74176.3,12.51,-22.17,-22.11,0,*41
1491739350.63,33050,13.56,74182.5,12.51,-20.73,-21.17,0,*4C
1491739351.85,33051,13.56,74178.5,12.53,-20.69,-21.09,0,*4B
1491739353.08,33052,13.56,74176.5,12.55,-21.83,-22.07,0,*46
1491739354.33,33053,13.56,74176.5,12.55,-21.03,-21.33,0,*4B
1491739355.52,33054,13.56,74176.3,12.55,-22.07,-22.37,0,*4C
1491739356.72,33055,13.56,74178.3,12.55,-22.03,-22.27,0,*48
1491739357.95,33056,13.56,74178.5,12.55,-20.93,-21.27,0,*43
1491739359.19,33057,13.56,74178.3,12.55,-22.57,-23.03,0,*4C
1491739360.41,33058,13.56,74180.0,12.55,-22.87,-23.33,0,*4D
1491739361.67,33059,13.56,74176.3,12.57,-22.67,-23.03,0,*43
1491739362.9,33060,13.56,74180.0,12.55,-22.83,-23.19,0,*4A
1491739364.13,33061,13.56,74178.0,12.55,-22.21,-22.53,0,*4C
1491739365.34,33062,13.56,74182.3,12.55,-22.53,-22.97,0,*42
1491739366.54,33063,13.56,74178.5,12.55,-22.67,-23.09,0,*42
1491739367.75,33064,13.56,74184.0,12.55,-22.53,-22.83,0,*41
1491739368.98,33065,13.56,74178.0,12.55,-23.65,-24.05,0,*4C
1491739370.2,33066,13.56,74180.0,12.53,-22.63,-22.93,0,*47
1491739371.43,33067,13.56,74176.0,12.55,-21.17,-21.57,0,*4B
1491739372.65,33068,13.56,74178.3,12.55,-21.73,-22.21,0,*44
1491739373.85,33069,13.56,74176.8,12.55,-21.63,-22.07,0,*40
1491739375.11,33070,13.56,74180.5,12.55,-21.57,-21.87,0,*44
1491739376.36,33071,13.56,74178.5,12.55,-20.99,-21.33,0,*49
1491739377.59,33072,13.56,74176.8,12.57,-21.13,-21.47,0,*48
1491739378.82,33073,13.56,74176.3,12.57,-21.47,-21.73,0,*4F
1491739380.02,33074,13.56,74178.3,12.59,-22.67,-23.13,0,*43
1491739381.26,33075,13.56,74178.8,12.57,-22.57,-22.87,0,*43
1491739382.46,33076,13.56,74180.0,12.55,-22.11,-22.57,0,*4D
1491739383.69,33077,13.56,74180.3,12.59,-22.07,-22.47,0,*46
1491739384.92,33078,13.56,74180.8,12.57,-21.47,-21.93,0,*4A
1491739386.16,33079,13.56,74178.0,12.57,-22.41,-22.97,0,*49
1491739387.41,33080,13.56,74178.3,12.57,-23.39,-23.85,0,*43
1491739388.61,33081,13.56,74182.5,12.55,-22.97,-23.39,0,*42
1491739389.82,33082,13.56,74176.8,12.55,-21.73,-22.07,0,*44
1491739391.01,33083,13.56,74178.3,12.55,-22.07,-22.41,0,*47
1491739392.23,33084,13.56,74178.5,12.55,-22.37,-22.73,0,*42
1491739393.46,33085,13.56,74174.5,12.57,-21.63,-22.07,0,*40
1491739394.69,33086,13.56,74178.0,12.59,-21.43,-21.87,0,*44
1491739395.92,33087,13.56,74176.8,12.57,-22.07,-22.67,0,*45
1491739397.17,33088,13.56,74180.0,12.59,-23.19,-23.65,0,*49
1491739398.4,33089,13.56,74180.8,12.59,-22.47,-22.83,0,*4B
1491739399.62,33090,13.56,74180.3,12.55,-21.43,-21.57,0,*42
1491739400.88,33091,13.56,74176.3,12.57,-22.73,-23.09,0,*48
1491739402.11,33092,13.56,74176.8,12.57,-22.41,-22.87,0,*4D
1491739403.33,33093,13.56,74178.5,12.57,-22.03,-22.37,0,*41
1491739404.56,33094,13.56,74178.0,12.57,-22.07,-22.57,0,*44
1491739405.85,33095,13.56,74176.8,12.57,-23.65,-24.21,0,*47
1491739407.1,33096,13.56,74182.5,12.57,-22.73,-23.09,0,*4F
1491739408.31,33097,13.56,74180.8,12.55,-22.53,-22.87,0,*49
1491739409.51,33098,13.56,74178.5,12.55,-22.11,-22.57,0,*4D
1491739410.74,33099,13.56,74176.3,12.55,-22.97,-23.33,0,*41
1491739411.94,33100,13.56,74178.5,12.55,-22.07,-22.53,0,*4E
1491739413.17,33101,13.56,74180.3,12.55,-22.57,-23.03,0,*4E
1491739414.45,33102,13.56,74176.5,12.57,-23.23,-23.69,0,*41
1491739415.7,33103,13.56,74178.8,12.55,-22.73,-23.19,0,*41
1491739416.93,33104,13.56,74180.5,12.55,-22.87,-23.19,0,*4D
1491739418.13,33105,13.56,74182.5,12.55,-22.41,-22.83,0,*44
1491739419.33,33106,13.56,74182.0,12.55,-22.11,-22.57,0,*4B
1491739420.56,33107,13.56,74178.3,12.55,-21.43,-21.87,0,*40
1491739421.77,33108,13.56,74178.5,12.55,-22.53,-22.87,0,*4E
1491739422.97,33109,13.56,74176.0,12.55,-22.53,-22.83,0,*4B
1491739424.2,33110,13.56,74176.8,12.57,-22.87,-23.39,0,*48
1491739425.43,33111,13.56,74176.3,12.57,-22.11,-22.53,0,*4B
1491739426.66,33112,13.56,74182.3,12.55,-21.73,-22.21,0,*48
1491739427.94,33113,13.56,74178.8,12.57,-23.49,-23.69,0,*4D
1491739429.13,33114,13.56,74178.8,12.55,-23.39,-23.79,0,*4E
1491739430.36,33115,13.56,74180.3,12.55,-23.33,-23.79,0,*45
1491739431.63,33116,13.56,74182.0,12.53,-23.23,-23.85,0,*42
1491739432.89,33117,13.56,74180.8,12.53,-24.35,-24.87,0,*46
1491739434.15,33118,13.56,74180.0,12.53,-22.93,-23.23,0,*4A
1491739435.41,33119,13.56,74176.5,12.51,-21.53,-21.97,0,*4B
1491739436.64,33120,13.56,74176.3,12.53,-21.63,-21.93,0,*44
1491739437.89,33121,13.56,74178.0,12.53,-21.53,-21.93,0,*46
1491739439.1,33122,13.56,74182.0,12.55,-21.93,-22.37,0,*42
1491739440.32,33123,13.56,74180.3,12.55,-22.83,-23.33,0,*44
1491739441.55,33124,13.56,74178.0,12.55,-22.21,-22.57,0,*48
1491739442.76,33125,13.56,74178.0,12.55,-22.37,-22.83,0,*47
1491739444.01,33126,13.56,74178.5,12.57,-22.37,-22.73,0,*49
1491739445.27,33127,13.56,74178.0,12.57,-21.47,-21.87,0,*44
1491739446.5,33128,13.56,74178.3,12.57,-22.07,-22.27,0,*45
1491739447.76,33129,13.56,74176.5,12.57,-22.67,-23.03,0,*45
1491739448.96,33130,13.56,74178.0,12.55,-21.63,-22.07,0,*4D
1491739450.16,33131,13.56,74178.0,12.59,-21.39,-21.77,0,*4B
1491739451.36,33132,13.56,74178.8,12.59,-22.03,-22.53,0,*47
1491739452.59,33133,13.56,74180.0,12.59,-23.99,-24.61,0,*43
1491739453.8,33134,13.56,74176.5,12.55,-24.61,-25.13,0,*4C
1491739455.0,33135,13.56,74178.8,12.55,-24.97,-25.49,0,*4B
1491739456.21,33136,13.56,74180.0,12.51,-22.87,-23.13,0,*42
1491739457.43,33137,13.56,74178.8,12.53,-21.77,-22.11,0,*4E
1491739458.72,33138,13.56,74176.5,12.53,-21.67,-22.17,0,*46
1491739459.95,33139,13.56,74176.8,12.53,-22.11,-22.57,0,*41
1491739461.17,33140,13.56,74176.3,12.55,-21.77,-22.21,0,*4B
1491739462.4,33141,13.56,74178.0,12.55,-21.63,-22.21,0,*4F
1491739463.62,33142,13.56,74180.3,12.55,-22.27,-22.73,0,*48
1491739464.82,33143,13.56,74176.8,12.55,-22.03,-22.37,0,*4F
1491739466.02,33144,13.56,74182.5,12.55,-21.63,-21.93,0,*40
1491739467.27,33145,13.56,74180.5,12.59,-20.99,-21.33,0,*43
1491739468.53,33146,13.56,74178.0,12.59,-20.99,-21.27,0,*45
1491739469.76,33147,13.56,74178.5,12.59,-21.39,-21.67,0,*4B
1491739470.99,33148,13.56,74176.3,12.59,-22.97,-23.33,0,*40
1491739472.2,33149,13.56,74178.5,12.59,-22.57,-22.93,0,*46
1491739473.41,33150,13.56,74178.5,12.61,-22.03,-22.63,0,*4B
1491739474.62,33151,13.56,74180.3,12.61,-22.27,-22.63,0,*4C
1491739475.85,33152,13.56,74178.5,12.59,-22.03,-22.47,0,*44
1491739477.11,33153,13.56,74178.3,12.59,-22.17,-22.47,0,*40
1491739478.32,33154,13.56,74178.8,12.59,-22.27,-22.57,0,*45
1491739479.52,33155,13.56,74182.0,12.59,-23.89,-24.31,0,*47
1491739480.75,33156,13.56,74178.8,12.59,-23.03,-23.59,0,*4F
1491739481.99,33157,13.56,74180.5,12.59,-23.49,-23.95,0,*40
1491739483.19,33158,13.56,74176.5,12.59,-23.13,-23.59,0,*40
1491739484.39,33159,13.56,74178.0,12.59,-22.03,-22.37,0,*48
1491739485.65,33160,13.56,74178.0,12.59,-21.27,-21.67,0,*41
1491739486.88,33161,13.56,74176.3,12.59,-22.07,-22.47,0,*40
1491739488.09,33162,13.56,74176.0,12.59,-22.53,-22.93,0,*4B
1491739489.33,33163,13.56,74182.0,12.61,-20.89,-21.23,0,*4C
1491739490.54,33164,13.56,74178.0,12.61,-21.17,-21.47,0,*4F
1491739491.78,33165,13.56,74176.5,12.61,-20.59,-21.03,0,*45
1491739492.99,33166,13.56,74178.8,12.65,-21.17,-21.47,0,*49
1491739494.24,33167,13.56,74178.8,12.63,-21.97,-22.41,0,*43
1491739495.48,33168,13.56,74178.8,12.65,-21.93,-22.21,0,*48
1491739496.69,33169,13.56,74176.5,12.65,-21.43,-21.77,0,*44
1491739497.93,33170,13.56,74180.3,12.65,-21.87,-22.27,0,*42
1491739499.14,33171,13.56,74178.8,12.65,-22.11,-22.53,0,*4C
1491739500.39,33172,13.56,74176.3,12.65,-23.23,-23.65,0,*4B
1491739501.67,33173,13.56,74180.0,12.63,-23.29,-23.69,0,*4A
1491739502.93,33174,13.56,74176.8,12.65,-23.19,-23.65,0,*44
1491739504.18,33175,13.56,74180.0,12.63,-21.39,-21.83,0,*49
1491739505.39,33176,13.56,74178.5,12.65,-21.17,-21.47,0,*48
1491739506.63,33177,13.56,74178.5,12.65,-21.93,-22.21,0,*46
1491739507.89,33178,13.56,74180.0,12.67,-23.19,-23.75,0,*4B
1491739509.14,33179,13.56,74176.8,12.65,-22.93,-23.23,0,*48
1491739510.35,33180,13.56,74178.0,12.65,-22.41,-22.93,0,*4B
1491739511.59,33181,13.56,74178.0,12.65,-23.09,-23.49,0,*41
1491739512.84,33182,13.56,74178.8,12.63,-23.23,-23.59,0,*4D
1491739514.07,33183,13.56,74178.5,12.65,-22.87,-23.33,0,*49
1491739515.3,33184,13.56,74180.0,12.63,-22.97,-23.39,0,*43
1491739516.53,33185,13.56,74174.0,12.63,-22.11,-22.41,0,*42
1491739517.77,33186,13.56,74178.5,12.61,-21.77,-22.17,0,*43
1491739519.05,33187,13.56,74178.8,12.63,-23.29,-23.85,0,*43
1491739520.3,33188,13.56,74176.8,12.63,-21.09,-21.33,0,*43
1491739521.52,33189,13.56,74178.3,12.65,-20.89,-21.17,0,*4B
1491739522.75,33190,13.56,74178.5,12.65,-21.97,-22.37,0,*4C
1491739523.99,33191,13.56,74178.3,12.65,-21.27,-21.63,0,*44
1491739525.22,33192,13.63,74182.3,12.67,-21.73,-22.07,0,*45
1491739526.48,33193,13.56,74178.5,12.67,-22.07,-22.47,0,*40
1491739527.71,33194,13.56,74176.3,12.69,-22.17,-22.83,0,*40
1491739528.94,33195,13.56,74176.8,12.69,-22.67,-23.03,0,*4F
1491739530.21,33196,13.56,74178.5,12.67,-22.97,-23.33,0,*4E
1491739531.43,33197,13.56,74176.5,12.67,-22.03,-22.37,0,*47
1491739532.72,33198,13.56,74176.8,12.67,-21.57,-21.87,0,*42
1491739533.92,33199,13.56,74178.0,12.69,-21.09,-21.43,0,*4E
1491739535.15,33200,13.56,74176.5,12.69,-21.13,-21.53,0,*47
1491739536.35,33201,13.56,74176.3,12.69,-22.03,-22.37,0,*45
1491739537.55,33202,13.56,74178.0,12.69,-22.37,-22.83,0,*4E
1491739538.84,33203,13.56,74178.0,12.67,-23.03,-23.29,0,*46
1491739540.07,33204,13.56,74178.8,12.69,-21.67,-22.03,0,*46
1491739541.27,33205,13.63,74180.8,12.69,-22.03,-22.53,0,*43
1491739542.5,33206,13.56,74178.8,12.69,-23.85,-24.47,0,*4C
1491739543.76,33207,13.56,74182.0,12.67,-23.19,-23.59,0,*4E
1491739544.99,33208,13.63,74180.5,12.69,-23.19,-23.75,0,*41
1491739546.25,33209,13.56,74176.0,12.67,-22.83,-23.19,0,*46
1491739547.46,33210,13.56,74176.3,12.65,-22.41,-22.87,0,*44
1491739548.74,33211,13.56,74180.5,12.63,-22.31,-22.73,0,*4F
1491739549.95,33212,13.56,74178.3,12.65,-22.53,-22.87,0,*45
1491739551.19,33213,13.56,74178.0,12.65,-22.93,-23.49,0,*4B
1491739552.45,33214,13.63,74180.0,12.67,-22.03,-22.31,0,*49
1491739553.71,33215,13.56,74176.3,12.67,-21.83,-22.07,0,*46
1491739554.91,33216,13.56,74174.5,12.65,-22.07,-22.37,0,*4B
1491739556.2,33217,13.56,74178.0,12.67,-21.23,-21.53,0,*4C
1491739557.49,33218,13.63,74182.5,12.67,-21.83,-22.17,0,*4A
1491739558.75,33219,13.56,74178.8,12.69,-21.27,-21.67,0,*4F
1491739559.98,33220,13.56,74176.0,12.69,-21.53,-22.03,0,*47
1491739561.22,33221,13.56,74178.8,12.69,-21.93,-22.47,0,*4A
1491739562.45,33222,13.56,74180.0,12.73,-23.49,-24.05,0,*47
1491739563.71,33223,13.56,74176.8,12.67,-23.95,-24.57,0,*45
1491739564.96,33224,13.56,74180.5,12.65,-24.41,-24.77,0,*4C
1491739566.22,33225,13.56,74178.0,12.65,-23.19,-23.49,0,*4D
1491739567.48,33226,13.56,74174.5,12.65,-23.33,-23.85,0,*46
1491739568.71,33227,13.56,74178.3,12.65,-23.49,-23.89,0,*46
1491739569.97,33228,13.56,74178.8,12.65,-23.19,-23.65,0,*4E
1491739571.23,33229,13.56,74176.5,12.63,-22.11,-22.47,0,*41
1491739572.47,33230,13.56,74178.0,12.65,-23.09,-23.49,0,*48
1491739573.72,33231,13.56,74176.3,12.65,-22.77,-23.09,0,*45
1491739574.95,33232,13.56,74176.5,12.63,-21.77,-22.11,0,*4B
1491739576.16,33233,13.63,74180.3,12.65,-21.77,-22.03,0,*4F
1491739577.42,33234,13.56,74176.3,12.63,-22.87,-23.23,0,*41
1491739578.67,33235,13.56,74178.0,12.63,-24.11,-24.35,0,*49
1491739579.94,33236,13.63,74180.0,12.63,-23.69,-24.11,0,*44
1491739581.22,33237,13.63,74182.3,12.63,-23.85,-24.25,0,*40
1491739582.46,33238,13.56,74178.5,12.61,-24.35,-24.83,0,*4D
1491739583.69,33239,13.56,74178.8,12.59,-23.59,-23.99,0,*46
1491739584.92,33240,13.56,74176.0,12.59,-21.87,-22.03,0,*4B
1491739586.12,33241,13.56,74176.8,12.61,-21.09,-21.47,0,*44
1491739587.38,33242,13.56,74178.8,12.63,-21.47,-21.97,0,*42
1491739588.61,33243,13.63,74182.0,12.63,-22.11,-22.57,0,*4C
1491739589.84,33244,13.63,74180.8,12.65,-23.39,-23.85,0,*48
1491739591.1,33245,13.56,74178.5,12.63,-22.77,-23.13,0,*4B
1491739592.35,33246,13.56,74178.0,12.63,-23.13,-23.69,0,*46
1491739593.58,33247,13.56,74176.3,12.61,-23.59,-23.95,0,*48
1491739594.81,33248,13.63,74180.3,12.61,-23.59,-24.11,0,*4C
1491739596.04,33249,13.56,74176.8,12.61,-21.83,-22.11,0,*4E
1491739597.31,33250,13.63,74180.8,12.61,-21.97,-22.47,0,*40
1491739598.54,33251,13.56,74178.8,12.59,-24.11,-25.13,0,*47
1491739599.76,33252,13.56,74178.5,12.59,-24.93,-25.29,0,*47
1491739601.01,33253,13.56,74178.0,12.57,-23.33,-23.39,0,*42
1491739602.24,33254,13.56,74178.0,12.57,-22.41,-22.67,0,*4B
1491739603.52,33255,13.56,74176.5,12.57,-23.19,-23.65,0,*45
1491739604.81,33256,13.56,74178.3,12.57,-23.23,-23.49,0,*41
1491739606.09,33257,13.56,74176.5,12.57,-20.99,-21.33,0,*4D
1491739607.31,33258,13.56,74176.8,12.57,-21.43,-21.73,0,*40
1491739608.55,33259,13.56,74176.8,12.59,-22.77,-23.13,0,*4F
1491739609.75,33260,13.56,74176.0,12.59,-22.37,-22.67,0,*43
1491739610.98,33261,13.63,74178.8,12.59,-22.63,-23.03,0,*40
1491739612.18,33262,13.56,74176.8,12.61,-23.09,-23.39,0,*4C
1491739613.41,33263,13.63,74180.0,12.59,-21.83,-22.11,0,*4D
1491739614.64,33264,13.56,74178.8,12.61,-21.97,-22.27,0,*41
1491739615.88,33265,13.56,74178.0,12.59,-21.87,-22.07,0,*48
1491739617.12,33266,13.63,74178.0,12.63,-22.93,-23.43,0,*45
1491739618.37,33267,13.63,74180.8,12.63,-23.89,-24.41,0,*4B
1491739619.58,33268,13.56,74176.5,12.59,-22.97,-23.43,0,*46
1491739620.8,33269,13.56,74178.8,12.59,-22.83,-23.29,0,*4E
1491739622.04,33270,13.56,74178.3,12.61,-22.83,-23.19,0,*4E
1491739623.27,33271,13.56,74176.3,12.59,-22.93,-23.19,0,*45
1491739624.49,33272,13.63,74180.5,12.61,-22.57,-22.97,0,*42
1491739625.72,33273,13.56,74174.5,12.59,-23.13,-23.49,0,*4B
1491739626.98,33274,13.56,74178.3,12.59,-22.21,-22.47,0,*43
1491739628.21,33275,13.56,74176.3,12.59,-22.17,-22.67,0,*45
1491739629.44,33276,13.56,74178.0,12.59,-22.47,-22.83,0,*49
1491739630.71,33277,13.63,74180.0,12.61,-22.77,-23.23,0,*4B
1491739631.91,33278,13.56,74176.3,12.59,-23.79,-24.31,0,*44
1491739633.17,33279,13.56,74178.0,12.59,-23.03,-23.03,0,*4E
1491739634.39,33280,13.56,74176.8,12.57,-22.07,-22.41,0,*44
1491739635.66,33281,13.56,74178.0,12.57,-23.49,-23.95,0,*46
1491739636.93,33282,13.63,74182.3,12.57,-22.53,-23.03,0,*40
1491739638.16,33283,13.56,74176.3,12.59,-23.75,-24.15,0,*4A
1491739639.39,33284,13.63,74178.5,12.57,-25.09,-25.61,0,*4C
1491739640.62,33285,13.56,74176.3,12.55,-23.99,-24.47,0,*45
1491739641.82,33286,13.56,74178.0,12.55,-23.39,-23.79,0,*46
1491739643.03,33287,13.63,74176.8,12.55,-22.53,-22.97,0,*4B
1491739644.29,33288,13.56,74176.3,12.53,-23.69,-24.11,0,*42
1491739645.56,33289,13.63,74180.5,12.53,-23.53,-24.11,0,*4A
1491739646.79,33290,13.56,74178.0,12.53,-23.39,-23.75,0,*4B
1491739648.01,33291,13.63,74180.5,12.53,-22.93,-23.39,0,*43
1491739649.28,33292,13.56,74174.8,12.51,-22.77,-23.23,0,*43
1491739650.53,33293,13.56,74176.5,12.51,-23.23,-23.69,0,*4C
1491739651.75,33294,13.56,74178.0,12.51,-23.39,-23.69,0,*40
1491739652.98,33295,13.56,74176.5,12.53,-22.11,-22.57,0,*44
1491739654.25,33296,13.56,74178.8,12.53,-23.29,-23.69,0,*41
1491739655.48,33297,13.63,74178.0,12.51,-23.99,-24.35,0,*47
1491739656.72,33298,13.63,74180.0,12.51,-23.75,-24.25,0,*4B
1491739657.95,33299,13.56,74178.5,12.53,-21.47,-21.77,0,*49
1491739659.18,33300,13.56,74176.0,12.51,-20.59,-20.83,0,*4E
1491739660.44,33301,13.63,74178.8,12.53,-20.89,-21.33,0,*4A
1491739661.66,33302,13.56,74176.5,12.55,-21.17,-21.57,0,*4B
1491739662.89,33303,13.56,74176.0,12.55,-21.77,-22.21,0,*4E
1491739664.12,33304,13.56,74178.3,12.55,-22.67,-23.19,0,*41
1491739665.33,33305,13.56,74178.3,12.55,-24.93,-25.45,0,*42
1491739666.59,33306,13.63,74180.0,12.57,-23.99,-24.35,0,*48
1491739667.84,33307,13.56,74176.3,12.53,-22.87,-23.23,0,*43
1491739669.09,33308,13.56,74176.5,12.53,-22.73,-23.09,0,*4F
1491739670.33,33309,13.56,74176.0,12.53,-23.09,-23.43,0,*4C
1491739671.53,33310,13.56,74178.0,12.55,-24.05,-24.51,0,*4D
1491739672.77,33311,13.56,74178.5,12.51,-23.29,-23.75,0,*40
1491739673.99,33312,13.63,74176.5,12.51,-23.29,-23.59,0,*4D
1491739675.2,33313,13.56,74178.0,12.51,-22.63,-22.93,0,*44
1491739676.47,33314,13.56,74178.3,12.51,-22.17,-22.47,0,*49
1491739677.75,33315,13.56,74176.8,12.53,-21.83,-22.31,0,*45
1491739679.0,33316,13.56,74176.0,12.53,-22.87,-23.23,0,*43
1491739680.25,33317,13.63,74180.0,12.53,-22.41,-22.77,0,*48
1491739681.48,33318,13.56,74176.0,12.51,-21.97,-22.41,0,*48
1491739682.73,33319,13.56,74176.0,12.53,-22.47,-22.93,0,*4A
1491739683.98,33320,13.56,74176.5,12.53,-22.87,-23.29,0,*4C
1491739685.23,33321,13.56,74176.0,12.53,-23.53,-23.89,0,*4F
1491739686.43,33322,13.63,74180.8,12.51,-23.13,-23.39,0,*41
1491739687.71,33323,13.63,74178.3,12.53,-21.53,-21.83,0,*47
1491739688.97,33324,13.56,74178.3,12.53,-22.17,-22.63,0,*4E
1491739690.19,33325,13.56,74178.5,12.55,-23.39,-23.69,0,*4F
1491739691.44,33326,13.56,74176.3,12.55,-23.19,-23.65,0,*42
1491739692.67,33327,13.56,74178.0,12.53,-24.57,-25.13,0,*4F
1491739693.91,33328,13.56,74178.5,12.51,-23.75,-24.25,0,*41